Погода в Риге

Погода в Риге : погода сейчас, прогноз погоды и архив. Всё, что Вы хотите узнать о погоде в Риге!

Поиск расширенной информации на нашем сайте:

Другие новости

Новости СМИ2

Главная страница сайта

Новости сайта

03.07.2017

Напоминаем, что на нашем специализированном сайте Метеоцентр.Азия вы можете получить высокодетализированные автоматические прогнозы погоды по пунктам России, СНГ и мира в авиационном формате (включающие направление и скорость ветра, видимость, явления погоды, количество и форму облачности, нижнюю и верхнюю границу облачности).


Погода в Риге - сегодня

Время (UTC), дата Ветер
(°,м/с) 
Видим.   Явления Облачность Т
(°С)
Тd
(°С)
f(%) Тe
(°С)
Pmin
(гПа)
dP
(гПа)
Po
(мм)
O2
(г/м3)
Тmin Tmax R s Состояние
почвы
06 11.08.18 260 (З) н/о    н/о 
+20.8 +15.1 70 +29  1019.8  0.6  764  282  +18.8         
09 11.08.18 280 (З) н/о    н/о 
+22.7 +12.3 52 +27  1019.8  0.1  764  281           
12 11.08.18 170 (Ю) н/о    н/о 
+20.3 +13.7 66 +26  1019.4  -0.5  761  283           
15 11.08.18 160 (Ю) н/о    н/о 
+19 +14.2 74 +27  1017.2  -2.2  762  283           
18 11.08.18 170 (Ю) н/о    н/о 
+16.8 +14.2 85 +25  1015.9  -1.3  761  285    +22.8       
21 11.08.18 220 (ЮЗ) н/о    н/о 
+16.4 +13.2 81 +23  1014.4  -1.5  760  286           
00 12.08.18 150 (ЮВ) н/о    н/о 
+14.6 +13.4 93 +21  1012.1  -2.3  756  286           
03 12.08.18 160 (Ю) н/о    н/о 
+13.5 +12.6 94 +18  1010.4  -1.7  757  287           
06 12.08.18 180 (Ю) н/о    н/о 
+16.7 +13.5 81 +23  1008.2  -2.2  756  284  +13.4         
09 12.08.18 210 (ЮЗ) 6-10{14}  н/о    н/о 
+16.3 +13.3 82 +22  1008  -0.2  755  284           
12 12.08.18 220 (ЮЗ) 3{14}  н/о    н/о 
+15.4 +13.5 88 +22  1008  753  284           
15 12.08.18 230 (ЮЗ) 5{16}  н/о    н/о 
+19.1 +11.1 60 +22  1007.5  -0.4  755  282           
18 12.08.18 230 (ЮЗ) 4-10{16}  н/о    н/о 
+17.8 +10.3 61 +19  1008.6  756  283    +19.8       
21 12.08.18 220 (ЮЗ) 5-10{12}  н/о    н/о 
+14.7 +10.8 77 +16  1008.8  0.2  756  286           
00 13.08.18 220 (ЮЗ) 4{12}  н/о    н/о 
+14.7 +11.4 81 +18  1008.4  -0.4  753  286           
03 13.08.18 220 (ЮЗ) н/о    н/о 
+14.2 +12 87 +18  1008.7  0.3  756  287           
06 13.08.18 220 (ЮЗ) н/о    н/о 
+17.4 +12.2 72 +22  1009.7  757  284  +14.1         
09 13.08.18 260 (З) н/о    н/о 
+20.8 +11.4 55 +24  1010.5  0.9  757  281           
12 13.08.18 320 (СЗ) н/о    н/о 
+20.8 +11.4 55 +24  1010.7  0.2  755  281           
15 13.08.18 330 (СЗ) н/о    н/о 
+20.7 +11.5 56 +24  1010.4  -0.3  757  281           
18 13.08.18 010 (С) н/о    н/о 
+18.3 +11.5 65 +23  1011.1  0.6  758  283    +21.4       
21 13.08.18 040 (СВ) н/о    н/о 
+15.4 +12.5 83 +21  1011.8  0.7  758  286           
00 14.08.18 070 (В) н/о    н/о 
+14.5 +11.9 84 +20  1012.2  0.4  756  287           
03 14.08.18 090 (В) н/о    н/о 
+14.1 +10.4 78 +16  1012.2  759  288           
06 14.08.18 160 (Ю) н/о    н/о 
+15.6 +12.8 83 +22  1012.2  759  286  +13.4         
Время (UTC), дата Ветер
(°,м/с) 
Видим.   Явления Облачность Т
(°С)
Тd
(°С)
f(%) Тe
(°С)
Pmin
(гПа)
dP
(гПа)
Po
(мм)
O2
(г/м3)
Тmin Tmax R s Состояние
почвы

Для получения пояснительной информации подведите курсор к названию столбца.

ПОГОДА в Риге - архив

Всё, что Вы хотите узнать о погоде в Риге - удобно и подробно!

Выберите нужную дату (начиная с 1 января 2015* года) и нажмите кнопку "Найти".
Будут отображены архивные сводки погоды по пункту Рига, начиная с указанной даты.


Отображать данные в формате CSV (для использования в таблицах Excel)


Внимание! Наш архив погоды предназначен исключительно для личного некоммерческого использования в познавательных целях. Если Вам необходимы официальные справки о состоянии погоды (для производственных, юридических, коммерческих и т.п. целей), обращайтесь в органы Росгидромета.

*Примечание: данная дата относится к архиву по метеостанциям СССР (Россия, СНГ, Балтия).
Архив по метеостанциям Зарубежной Европы и Азии (кроме Китая) хранится 10 дней, по другим регионам земного шара (Китай, Африка, Америка, Австралия, Океания) - 1 день.

Рига - район местоположения метеостанции


Название, широта, долгота, высота метеостанции:
Рига 57°ш. 24.1°д. 7 м над ур. моря [Латвия]

Дополнительная информация

В oтличие oт бoльшинства пoгoдных сайтoв мы публикуем пoдрoбную метеoинфoрмацию в детальнoм прoфессиoнальнoм фoрмате.

Характеристики температуры и влажнoсти вoздуха измеряются на высoте 2 м в тени вдали oт зданий и деревьев.
Скoрoсть ветра измеряется на высoте 10 м (на урoвне рoста челoвека скoрoсть ветра ниже в 1.5-2 раза). Если метеoстанция нахoдится в гoрoде или в лесу, тo скoрoсть ветра занижена на 2-4 м/с пo сравнению с oткрытым местoм. Скoрoсть ветра над акватoриями крупных рек и oзёр, а также на вершинах хoлмoв на 2-5 м/с выше, чем в oбычных услoвиях.
Атмoсфернoе давление в разных тoчках местнoсти мoжет значительнo oтличаться oт давления на метеoстанции, в зависимoсти oт услoвий рельефа (при пoдъёме на 10 м давление пoнижается примернo на 1 мм рт.ст.).